Regional Weather Roundup
Issued by NWS Charleston, SC

Current Version | Previous Version | Graphics & Text | Print | Product List | Glossary On
Versions: 1 2 3 4 5 6 7 8 9 10 11 12 13 14 15 16 17 18 19 20 21 22 23 24 25 26 27 28 29 30 31 32 33 34 35 36 37 38 39 40 41 42 43 44 45 46 47 48 49 50
782
ASUS42 KCHS 271527
RWRCHS

REGIONAL WEATHER ROUNDUP
NATIONAL WEATHER SERVICE CHARLESTON SC
1100 AM EDT SAT MAY 27 2017

NOTE: "FAIR" INDICATES FEW OR NO CLOUDS BELOW 12,000 FEET WITH NO
SIGNIFICANT WEATHER AND/OR OBSTRUCTIONS TO VISIBILITY.

NOT ALL STATIONS ARE QUALITY CONTROLLED. USE DATA WITH CAUTION...
ESPECIALLY DEWPOINT OBSERVATIONS.

SCZ027-030-031-034>040-042>050-271600-
...SOUTHEAST SOUTH CAROLINA...

CITY           SKY/WX    TMP DP  RH WIND       PRES   REMARKS
N CHARLESTON   SUNNY     83  63  50 VRB7      30.01F
WATERFRONT PRK   N/A     80  66  62 SW7       29.99F
JOHNS ISLAND   FAIR      84  68  58 VRB7G13   30.02S
PINOPOLIS        N/A     79  68  69 SW6       29.94S
MONCKS CORNER  FAIR      82  63  51 W8        30.01S
SUMMERVILLE    FAIR      81  64  57 SW5       30.02S
BEAUFORT MCAS  SUNNY     84  65  52 W12       30.03S
BEAUFORT ARPT  FAIR      82  63  51 W6        30.03S
HILTON HEAD IS SUNNY     82  63  51 W9        30.04F
WALTERBORO     SUNNY     82  63  51 W7        30.03S
ALLENDALE      FAIR      84  64  51 VRB6G13   30.01S

...SOUTHERN MIDLANDS AND PEE DEE...

CITY           SKY/WX    TMP DP  RH WIND       PRES   REMARKS
GEORGETOWN     FAIR      82  64  54 SW9       30.01S
KINGSTREE      FAIR      81  63  54 W6        29.98F
ORANGEBURG     SUNNY     82  65  56 W9        30.00S
BARNWELL       FAIR      86  66  51 W9G16     30.01F
AIKEN          FAIR      82  63  51 SW18      30.05S
MANNING        FAIR      79  70  73 SW17      30.00S
COLUMBIA       MOSUNNY   86  63  45 W17G23    29.98S
SUMTER         SUNNY     82  65  55 W13       29.96F
FLORENCE       SUNNY     83  66  56 W12       29.97F
MYRTLE BEACH   SUNNY     82  64  54 W8        29.99F
N MYRTLE BEACH SUNNY     80  68  66 S10       29.98F

$$

GAZ063-065-086>088-099>101-113>116-118-119-134>141-150-271600-
...SOUTHEAST GEORGIA...

CITY           SKY/WX    TMP DP  RH WIND       PRES   REMARKS
SAVANNAH ARPT  MOSUNNY   86  61  42 W9        30.04F
HUNTER AAF     SUNNY     85  69  59 W5        30.02S
FORT STEWART   SUNNY     84  62  48 W9        30.02F
STATESBORO     SUNNY     84  66  53 W8        30.04S
SYLVANIA       SUNNY     84  67  57 W7        30.05S
CLAXTON        FAIR      83  70  63 SW7       30.05S

...CSRA...CENTRAL AND FAR SOUTHEAST GEORGIA...

CITY           SKY/WX    TMP DP  RH WIND       PRES   REMARKS
THOMSON        SUNNY     83  63  49 NW15G23   30.08S
AUGUSTA-BUSH   SUNNY     87  64  46 W8        30.00F
AUGUSTA-DANIEL SUNNY     84  61  45 W12G18    30.02F
SWAINSBORO     FAIR      82  64  54 W7        30.06S
VIDALIA        SUNNY     82  64  54 SW8       30.06S
EASTMAN        FAIR      83  48  29 W7        30.09F
HAZLEHURST     FAIR      85  63  48 NW6       30.06S
ALMA           SUNNY     83  64  52 W7        30.06F
WAYCROSS       SUNNY     87  67  50 SW9       30.07S HX  90
JESUP          FAIR      86  61  42 W5        30.06S
BAXLEY         FAIR      82  68  61 W7        30.06S
BRUNSWICK      SUNNY     84  66  54 W8        30.06F
SAINT SIMONS   LGT RAIN  82  63  52 W7        30.05F

$$

SCZ027-028-034-036>038-045-046-048>050-GAZ119-141-271600-
...LAKE AND SUPPLEMENTAL COASTAL OBSERVATIONS...

STATION/POSITION TIME  TEMP    WIND        PRES    WAVE   SWELL
                       AIR SEA DIR/SP/G            HT/PER HT/PER/DIR
                 (UTC) (F)     (DEG/KT/KT) (MB)    (FT/S) (FT/S/D)
WINYAH BAY       1430   80     270/  5     1016.0S
LAKE MURRAY      1450   80     270/  9/ 14 1014.6F
ACE BASIN NERRS  1430   80     240/  2     1017.0S
FORT PULASKI     1500   80     290/ 10/ 12 1017.4
SAPELO ISLAND    1500   82     270/  4     1018.0

$$

ANZ835-935-AMZ111-154-330-350-352-354-370-450-454-472-271600-
...C-MAN AND BUOY OBSERVATIONS...

STATION/POSITION TIME  TEMP    WIND        PRES    WAVE   SWELL
                       AIR SEA DIR/SP/G            HT/PER HT/PER/DIR
                 (UTC) (F)     (DEG/KT/KT) (MB)    (FT/S) (FT/S/D)
BUOY 41004       1510   75 74  220/ 12/ 14 1016.5
BUOY 41008       1450   75 77  240/  8/  8 1017.4F   2/ 4   2/100/ 8
FOLLY BEACH CMAN 1500   78     220/ 14/ 16 1017.2F
CAPERS NEARSHORE 1508   81 76  240/ 14/ 17 1016.0F
FRIPP NEARSHORE  1508   77 77  240/ 10/ 12 1017.2R


STATION/POSITION TIME  TEMP    WIND        PRES    WAVE   SWELL
                       AIR SEA DIR/SP/G            HT/PER HT/PER/DIR
                 (UTC) (F)     (DEG/KT/KT) (MB)    (FT/S) (FT/S/D)
5E ST. MARYS GA  1500      78                N/A     2/ 8
FRYING PAN BUOY  1510   75 75  230/ 12/ 16 1015.5
BUOY 41025       1450   76 77  230/ 10/ 12 1014.4F   3/ 8   3/150/ 8
CAPE LOOKOUT NC  1500   76     230/ 10/ 14 1014.4F
BUOY 41002       1450   76 77  260/ 10/ 12 1017.2F   4/ 7   3/160/ 7
BUOY 41010       1510   78 79  230/  4/  6 1018.6
ST AUGUSTINE FL  1500   74 76   90/  4/  4 1019.4F


$$




USA.gov is the U.S. government's official web portal to all federal, state and local government web resources and services.